Year,Month,Day,Hour,Minute,Value (Times are PST for temperature in C)
2018,02,22,08,31,0.30
2018,02,22,08,32,0.30
2018,02,22,08,33,0.30
2018,02,22,08,34,0.40
2018,02,22,08,35,0.40
2018,02,22,08,36,0.40
2018,02,22,08,37,0.40
2018,02,22,08,38,0.40
2018,02,22,08,39,0.40
2018,02,22,08,40,0.40
2018,02,22,08,41,0.40
2018,02,22,08,42,0.40
2018,02,22,08,43,0.40
2018,02,22,08,44,0.40
2018,02,22,08,45,0.40
2018,02,22,08,46,0.40
2018,02,22,08,47,0.40
2018,02,22,08,48,0.40
2018,02,22,08,49,0.40
2018,02,22,08,50,0.40
2018,02,22,08,51,0.40
2018,02,22,08,52,0.40
2018,02,22,08,53,0.40
2018,02,22,08,54,0.40
2018,02,22,08,55,0.40
2018,02,22,08,56,0.40
2018,02,22,08,57,0.40
2018,02,22,08,58,0.40
2018,02,22,08,59,0.40
2018,02,22,09,00,0.40
2018,02,22,09,01,0.40
2018,02,22,09,02,0.40
2018,02,22,09,03,0.40
2018,02,22,09,04,0.40
2018,02,22,09,05,0.50
2018,02,22,09,06,0.50
2018,02,22,09,07,0.50
2018,02,22,09,08,0.50
2018,02,22,09,09,0.60
2018,02,22,09,10,0.60
2018,02,22,09,11,0.60
2018,02,22,09,12,0.60
2018,02,22,09,13,0.60
2018,02,22,09,14,0.60
2018,02,22,09,15,0.60
2018,02,22,09,16,0.60
2018,02,22,09,17,0.60
2018,02,22,09,18,0.60
2018,02,22,09,19,0.60
2018,02,22,09,20,0.60
2018,02,22,09,21,0.60
2018,02,22,09,22,0.60
2018,02,22,09,23,0.70
2018,02,22,09,24,0.70
2018,02,22,09,25,0.70
2018,02,22,09,26,0.70
2018,02,22,09,27,0.70
2018,02,22,09,28,0.70
2018,02,22,09,29,0.70
2018,02,22,09,30,0.70
2018,02,22,09,31,0.70
2018,02,22,09,32,0.70
2018,02,22,09,33,0.70
2018,02,22,09,34,0.70
2018,02,22,09,35,0.70
2018,02,22,09,36,0.70
2018,02,22,09,37,0.70
2018,02,22,09,38,0.70
2018,02,22,09,39,0.70
2018,02,22,09,40,0.70
2018,02,22,09,41,0.70
2018,02,22,09,42,0.70
2018,02,22,09,43,0.70
2018,02,22,09,44,0.70
2018,02,22,09,45,0.70
2018,02,22,09,46,0.80
2018,02,22,09,47,0.80
2018,02,22,09,48,0.80
2018,02,22,09,49,0.90
2018,02,22,09,50,0.90
2018,02,22,09,51,0.90
2018,02,22,09,52,0.90
2018,02,22,09,53,0.90
2018,02,22,09,54,0.90
2018,02,22,09,55,0.90
2018,02,22,09,56,0.90
2018,02,22,09,57,0.90
2018,02,22,09,58,0.90
2018,02,22,09,59,1.00
2018,02,22,10,00,1.00
2018,02,22,10,01,1.00
2018,02,22,10,02,1.00
2018,02,22,10,03,1.00
2018,02,22,10,04,1.00
2018,02,22,10,05,1.00
2018,02,22,10,06,1.00
2018,02,22,10,07,1.00
2018,02,22,10,08,1.10
2018,02,22,10,09,1.10
2018,02,22,10,10,1.10
2018,02,22,10,11,1.10
2018,02,22,10,12,1.10
2018,02,22,10,13,1.10
2018,02,22,10,14,1.10
2018,02,22,10,15,1.10
2018,02,22,10,16,1.10
2018,02,22,10,17,1.10
2018,02,22,10,18,1.20
2018,02,22,10,19,1.20
2018,02,22,10,20,1.20
2018,02,22,10,21,1.20
2018,02,22,10,22,1.20
2018,02,22,10,23,1.20
2018,02,22,10,24,1.20
2018,02,22,10,25,1.20
2018,02,22,10,26,1.30
2018,02,22,10,27,1.30
2018,02,22,10,28,1.30
2018,02,22,10,29,1.30
2018,02,22,10,30,1.20
2018,02,22,10,31,1.20
2018,02,22,10,32,1.20
2018,02,22,10,33,1.20
2018,02,22,10,34,1.20
2018,02,22,10,35,1.20
2018,02,22,10,36,1.20
2018,02,22,10,37,1.20
2018,02,22,10,38,1.10
2018,02,22,10,39,1.10
2018,02,22,10,40,1.10
2018,02,22,10,41,1.20
2018,02,22,10,42,1.20
2018,02,22,10,43,1.20
2018,02,22,10,44,1.20
2018,02,22,10,45,1.30
2018,02,22,10,46,1.30
2018,02,22,10,47,1.20
2018,02,22,10,48,1.20
2018,02,22,10,49,1.20
2018,02,22,10,50,1.20
2018,02,22,10,51,1.20
2018,02,22,10,52,1.20
2018,02,22,10,53,1.20
2018,02,22,10,54,1.10
2018,02,22,10,55,1.10
2018,02,22,10,56,1.10
2018,02,22,10,57,1.00
2018,02,22,10,58,1.00
2018,02,22,10,59,1.10
2018,02,22,11,00,1.10
2018,02,22,11,01,1.10
2018,02,22,11,02,1.10
2018,02,22,11,03,1.10
2018,02,22,11,04,1.10
2018,02,22,11,05,1.10
2018,02,22,11,06,1.10
2018,02,22,11,07,1.20
2018,02,22,11,08,1.20
2018,02,22,11,09,1.20
2018,02,22,11,10,1.30
2018,02,22,11,11,1.30
2018,02,22,11,12,1.20
2018,02,22,11,13,1.30
2018,02,22,11,14,1.30
2018,02,22,11,15,1.30
2018,02,22,11,16,1.30
2018,02,22,11,17,1.40
2018,02,22,11,18,1.40
2018,02,22,11,19,1.40
2018,02,22,11,20,1.40
2018,02,22,11,21,1.40
2018,02,22,11,22,1.40
2018,02,22,11,23,1.40
2018,02,22,11,24,1.30
2018,02,22,11,25,1.30
2018,02,22,11,26,1.30
2018,02,22,11,27,1.30
2018,02,22,11,28,1.30
2018,02,22,11,29,1.30
2018,02,22,11,30,1.30
2018,02,22,11,31,1.30
2018,02,22,11,32,1.30
2018,02,22,11,33,1.30
2018,02,22,11,34,1.30
2018,02,22,11,35,1.30
2018,02,22,11,36,1.30
2018,02,22,11,37,1.30
2018,02,22,11,38,1.30
2018,02,22,11,39,1.30
2018,02,22,11,40,1.40
2018,02,22,11,41,1.40
2018,02,22,11,42,1.40
2018,02,22,11,43,1.50
2018,02,22,11,44,1.50
2018,02,22,11,45,1.50
2018,02,22,11,46,1.60
2018,02,22,11,47,1.60
2018,02,22,11,48,1.60
2018,02,22,11,49,1.60
2018,02,22,11,50,1.60
2018,02,22,11,51,1.60
2018,02,22,11,52,1.60
2018,02,22,11,53,1.60
2018,02,22,11,54,1.60
2018,02,22,11,55,1.60
2018,02,22,11,56,1.50
2018,02,22,11,57,1.50
2018,02,22,11,58,1.40
2018,02,22,11,59,1.40
2018,02,22,12,00,1.40
2018,02,22,12,01,1.40
2018,02,22,12,02,1.40
2018,02,22,12,03,1.40
2018,02,22,12,04,1.40
2018,02,22,12,05,1.50
2018,02,22,12,06,1.50
2018,02,22,12,07,1.50
2018,02,22,12,08,1.60
2018,02,22,12,09,1.60
2018,02,22,12,10,1.60
2018,02,22,12,11,1.70
2018,02,22,12,12,1.70
2018,02,22,12,13,1.70
2018,02,22,12,14,1.70
2018,02,22,12,15,1.70
2018,02,22,12,16,1.70
2018,02,22,12,17,1.70
2018,02,22,12,18,1.70
2018,02,22,12,19,1.70
2018,02,22,12,20,1.70
2018,02,22,12,21,1.70
2018,02,22,12,22,1.60
2018,02,22,12,23,1.60
2018,02,22,12,24,1.60
2018,02,22,12,25,1.60
2018,02,22,12,26,1.60
2018,02,22,12,27,1.60
2018,02,22,12,28,1.50
2018,02,22,12,29,1.50
2018,02,22,12,30,1.50
2018,02,22,12,31,1.60
2018,02,22,12,32,1.60
2018,02,22,12,33,1.60
2018,02,22,12,34,1.60
2018,02,22,12,35,1.60
2018,02,22,12,36,1.70
2018,02,22,12,37,1.70
2018,02,22,12,38,1.70
2018,02,22,12,39,1.70
2018,02,22,12,40,1.70
2018,02,22,12,41,1.70
2018,02,22,12,42,1.70
2018,02,22,12,43,1.70
2018,02,22,12,44,1.70
2018,02,22,12,45,1.70
2018,02,22,12,46,1.70
2018,02,22,12,47,1.70
2018,02,22,12,48,1.80
2018,02,22,12,49,1.80
2018,02,22,12,50,1.80
2018,02,22,12,51,1.80
2018,02,22,12,52,1.80
2018,02,22,12,53,1.80
2018,02,22,12,54,1.80
2018,02,22,12,55,1.80
2018,02,22,12,56,1.90
2018,02,22,12,57,1.90
2018,02,22,12,58,1.90
2018,02,22,12,59,1.90
2018,02,22,13,00,1.90
2018,02,22,13,01,1.90
2018,02,22,13,02,1.90
2018,02,22,13,03,1.90
2018,02,22,13,04,1.90
2018,02,22,13,05,1.90
2018,02,22,13,06,1.90
2018,02,22,13,07,1.90
2018,02,22,13,08,1.80
2018,02,22,13,09,1.80
2018,02,22,13,10,1.80
2018,02,22,13,11,1.90
2018,02,22,13,12,1.90
2018,02,22,13,13,1.90
2018,02,22,13,14,1.80
2018,02,22,13,15,1.80
2018,02,22,13,16,1.80
2018,02,22,13,17,1.80
2018,02,22,13,18,1.80
2018,02,22,13,19,1.80
2018,02,22,13,20,1.80
2018,02,22,13,21,1.80
2018,02,22,13,22,1.80
2018,02,22,13,23,1.80
2018,02,22,13,24,1.80
2018,02,22,13,25,1.80
2018,02,22,13,26,1.80
2018,02,22,13,27,1.90
2018,02,22,13,28,1.90
2018,02,22,13,29,1.90
2018,02,22,13,30,1.90
2018,02,22,13,31,1.90
2018,02,22,13,32,1.80
2018,02,22,13,33,1.80
2018,02,22,13,34,1.80
2018,02,22,13,35,1.80
2018,02,22,13,36,1.80
2018,02,22,13,37,1.80
2018,02,22,13,38,1.80
2018,02,22,13,39,1.80
2018,02,22,13,40,1.80
2018,02,22,13,41,1.80
2018,02,22,13,42,1.90
2018,02,22,13,43,1.90
2018,02,22,13,44,1.90
2018,02,22,13,45,1.90
2018,02,22,13,46,2.00
2018,02,22,13,47,2.00
2018,02,22,13,48,2.00
2018,02,22,13,49,2.00
2018,02,22,13,50,2.10
2018,02,22,13,51,2.00
2018,02,22,13,52,2.00
2018,02,22,13,53,2.00
2018,02,22,13,54,2.00
2018,02,22,13,55,2.10
2018,02,22,13,56,2.10
2018,02,22,13,57,2.10
2018,02,22,13,58,2.00
2018,02,22,13,59,2.00
2018,02,22,14,00,2.00
2018,02,22,14,01,2.00
2018,02,22,14,02,2.00
2018,02,22,14,03,2.00
2018,02,22,14,04,2.00
2018,02,22,14,05,2.10
2018,02,22,14,06,2.10
2018,02,22,14,07,2.20
2018,02,22,14,08,2.20
2018,02,22,14,09,2.20
2018,02,22,14,10,2.30
2018,02,22,14,11,2.30
2018,02,22,14,12,2.30
2018,02,22,14,13,2.30
2018,02,22,14,14,2.30
2018,02,22,14,15,2.30
2018,02,22,14,16,2.30
2018,02,22,14,17,2.30
2018,02,22,14,18,2.40
2018,02,22,14,19,2.40
2018,02,22,14,20,2.40
2018,02,22,14,21,2.40
2018,02,22,14,22,2.40
2018,02,22,14,23,2.40
2018,02,22,14,24,2.30
2018,02,22,14,25,2.30
2018,02,22,14,26,2.30
2018,02,22,14,27,2.40
2018,02,22,14,28,2.40
2018,02,22,14,29,2.40
2018,02,22,14,30,2.50
2018,02,22,14,31,2.40
2018,02,22,14,32,2.40
2018,02,22,14,33,2.40
2018,02,22,14,34,2.40
2018,02,22,14,35,2.40
2018,02,22,14,36,2.40
2018,02,22,14,37,2.40
2018,02,22,14,38,2.40
2018,02,22,14,39,2.50
2018,02,22,14,40,2.50
2018,02,22,14,41,2.60
2018,02,22,14,42,2.60
2018,02,22,14,43,2.50
2018,02,22,14,44,2.50
2018,02,22,14,45,2.40
2018,02,22,14,46,2.40
2018,02,22,14,47,2.40
2018,02,22,14,48,2.40
2018,02,22,14,49,2.40
2018,02,22,14,50,2.40
2018,02,22,14,51,2.40
2018,02,22,14,52,2.40
2018,02,22,14,53,2.40
2018,02,22,14,54,2.40
2018,02,22,14,55,2.40
2018,02,22,14,56,2.50
2018,02,22,14,57,2.50
2018,02,22,14,58,2.60
2018,02,22,14,59,2.70
2018,02,22,15,00,2.70
2018,02,22,15,01,2.80
2018,02,22,15,02,2.80
2018,02,22,15,03,2.80
2018,02,22,15,04,2.80
2018,02,22,15,05,2.80
2018,02,22,15,06,2.80
2018,02,22,15,07,2.80
2018,02,22,15,08,2.70
2018,02,22,15,09,2.70
2018,02,22,15,10,2.70
2018,02,22,15,11,2.70
2018,02,22,15,12,2.70
2018,02,22,15,13,2.70
2018,02,22,15,14,2.80
2018,02,22,15,15,2.80
2018,02,22,15,16,2.70
2018,02,22,15,17,2.70
2018,02,22,15,18,2.70
2018,02,22,15,19,2.70
2018,02,22,15,20,2.70
2018,02,22,15,21,2.60
2018,02,22,15,22,2.60
2018,02,22,15,23,2.60
2018,02,22,15,24,2.60
2018,02,22,15,25,2.60
2018,02,22,15,26,2.60
2018,02,22,15,27,2.60
2018,02,22,15,28,2.60
2018,02,22,15,29,2.60
2018,02,22,15,30,2.60
2018,02,22,15,31,2.60
2018,02,22,15,32,2.60
2018,02,22,15,33,2.60
2018,02,22,15,34,2.70
2018,02,22,15,35,2.70
2018,02,22,15,36,2.70
2018,02,22,15,37,2.70
2018,02,22,15,38,2.70
2018,02,22,15,39,2.70
2018,02,22,15,40,2.70
2018,02,22,15,41,2.70
2018,02,22,15,42,2.70
2018,02,22,15,43,2.70
2018,02,22,15,44,2.80
2018,02,22,15,45,2.80
2018,02,22,15,46,2.80
2018,02,22,15,47,2.80
2018,02,22,15,48,2.80
2018,02,22,15,49,2.80
2018,02,22,15,50,2.80
2018,02,22,15,51,2.80
2018,02,22,15,52,2.80
2018,02,22,15,53,2.80
2018,02,22,15,54,2.70
2018,02,22,15,55,2.70
2018,02,22,15,56,2.70
2018,02,22,15,57,2.70
2018,02,22,15,58,2.70
2018,02,22,15,59,2.70
2018,02,22,16,00,2.70
2018,02,22,16,01,2.70
2018,02,22,16,02,2.80
2018,02,22,16,03,2.80
2018,02,22,16,04,2.80
2018,02,22,16,05,2.80
2018,02,22,16,06,2.90
2018,02,22,16,07,2.90
2018,02,22,16,08,2.90
2018,02,22,16,09,2.90
2018,02,22,16,10,2.90
2018,02,22,16,11,2.90
2018,02,22,16,12,2.90
2018,02,22,16,13,2.90
2018,02,22,16,14,2.90
2018,02,22,16,15,2.80
2018,02,22,16,16,2.70
2018,02,22,16,17,2.70
2018,02,22,16,18,2.70
2018,02,22,16,19,2.70
2018,02,22,16,20,2.70
2018,02,22,16,21,2.70
2018,02,22,16,22,2.70
2018,02,22,16,23,2.70
2018,02,22,16,24,2.70
2018,02,22,16,25,2.70
2018,02,22,16,26,2.70
2018,02,22,16,27,2.70
2018,02,22,16,28,2.70
2018,02,22,16,29,2.70
2018,02,22,16,30,2.70
2018,02,22,16,31,2.70
2018,02,22,16,32,2.60
2018,02,22,16,33,2.60
2018,02,22,16,34,2.60
2018,02,22,16,35,2.60
2018,02,22,16,36,2.60
2018,02,22,16,37,2.60
2018,02,22,16,38,2.60
2018,02,22,16,39,2.60
2018,02,22,16,40,2.50
2018,02,22,16,41,2.50
2018,02,22,16,42,2.60
2018,02,22,16,43,2.60
2018,02,22,16,44,2.60
2018,02,22,16,45,2.60
2018,02,22,16,46,2.60
2018,02,22,16,47,2.60
2018,02,22,16,48,2.60
2018,02,22,16,49,2.60
2018,02,22,16,50,2.60
2018,02,22,16,51,2.60
2018,02,22,16,52,2.60
2018,02,22,16,53,2.60
2018,02,22,16,54,2.60
2018,02,22,16,55,2.60
2018,02,22,16,56,2.50
2018,02,22,16,57,2.50
2018,02,22,16,58,2.50
2018,02,22,16,59,2.50
2018,02,22,17,00,2.40
2018,02,22,17,01,2.40
2018,02,22,17,02,2.40
2018,02,22,17,03,2.40
2018,02,22,17,04,2.40
2018,02,22,17,05,2.40
2018,02,22,17,06,2.40
2018,02,22,17,07,2.40
2018,02,22,17,08,2.40
2018,02,22,17,09,2.40
2018,02,22,17,10,2.40
2018,02,22,17,11,2.40
2018,02,22,17,12,2.30
2018,02,22,17,13,2.30
2018,02,22,17,14,2.30
2018,02,22,17,15,2.30
2018,02,22,17,16,2.30
2018,02,22,17,17,2.30
2018,02,22,17,18,2.30
2018,02,22,17,19,2.30
2018,02,22,17,20,2.30
2018,02,22,17,21,2.30
2018,02,22,17,22,2.30
2018,02,22,17,23,2.30
2018,02,22,17,24,2.30
2018,02,22,17,25,2.30
2018,02,22,17,26,2.30
2018,02,22,17,27,2.20
2018,02,22,17,28,2.20
2018,02,22,17,29,2.20
2018,02,22,17,30,2.20
2018,02,22,17,31,2.20
2018,02,22,17,32,2.20
2018,02,22,17,33,2.20
2018,02,22,17,34,2.20
2018,02,22,17,35,2.20
2018,02,22,17,36,2.10
2018,02,22,17,37,2.10
2018,02,22,17,38,2.10
2018,02,22,17,39,2.10
2018,02,22,17,40,2.10
2018,02,22,17,41,2.00
2018,02,22,17,42,2.00
2018,02,22,17,43,2.00
2018,02,22,17,44,2.00
2018,02,22,17,45,2.00
2018,02,22,17,46,1.90
2018,02,22,17,47,1.90
2018,02,22,17,48,1.90
2018,02,22,17,49,1.90
2018,02,22,17,50,1.90
2018,02,22,17,51,1.90
2018,02,22,17,52,1.90
2018,02,22,17,53,1.90
2018,02,22,17,54,1.90
2018,02,22,17,55,1.90
2018,02,22,17,56,1.90
2018,02,22,17,57,1.90
2018,02,22,17,58,1.90
2018,02,22,17,59,1.90
2018,02,22,18,00,1.90
2018,02,22,18,01,1.90
2018,02,22,18,02,1.90
2018,02,22,18,03,1.90
2018,02,22,18,04,1.80
2018,02,22,18,05,1.80
2018,02,22,18,06,1.80
2018,02,22,18,07,1.80
2018,02,22,18,08,1.80
2018,02,22,18,09,1.80
2018,02,22,18,10,1.80
2018,02,22,18,11,1.70
2018,02,22,18,12,1.70
2018,02,22,18,13,1.70
2018,02,22,18,14,1.70
2018,02,22,18,15,1.70
2018,02,22,18,16,1.70
2018,02,22,18,17,1.70
2018,02,22,18,18,1.60
2018,02,22,18,19,1.60
2018,02,22,18,20,1.60
2018,02,22,18,21,1.60
2018,02,22,18,22,1.50
2018,02,22,18,23,1.50
2018,02,22,18,24,1.50
2018,02,22,18,25,1.50
2018,02,22,18,26,1.40
2018,02,22,18,27,1.40
2018,02,22,18,28,1.40
2018,02,22,18,29,1.40
2018,02,22,18,30,1.40
2018,02,22,18,31,1.40
2018,02,22,18,32,1.40
2018,02,22,18,33,1.40
2018,02,22,18,34,1.40
2018,02,22,18,35,1.40
2018,02,22,18,36,1.40
2018,02,22,18,37,1.40
2018,02,22,18,38,1.40
2018,02,22,18,39,1.40
2018,02,22,18,40,1.40
2018,02,22,18,41,1.40
2018,02,22,18,42,1.40
2018,02,22,18,43,1.30
2018,02,22,18,44,1.30
2018,02,22,18,45,1.30
2018,02,22,18,46,1.30
2018,02,22,18,47,1.30
2018,02,22,18,48,1.30
2018,02,22,18,49,1.30
2018,02,22,18,50,1.30
2018,02,22,18,51,1.30
2018,02,22,18,52,1.30
2018,02,22,18,53,1.30
2018,02,22,18,54,1.30
2018,02,22,18,55,1.30
2018,02,22,18,56,1.30
2018,02,22,18,57,1.30
2018,02,22,18,58,1.40
2018,02,22,18,59,1.40
2018,02,22,19,00,1.40
2018,02,22,19,01,1.40
2018,02,22,19,02,1.40
2018,02,22,19,03,1.40
2018,02,22,19,04,1.40
2018,02,22,19,05,1.40
2018,02,22,19,06,1.40
2018,02,22,19,07,1.40
2018,02,22,19,08,1.40
2018,02,22,19,09,1.40
2018,02,22,19,10,1.40
2018,02,22,19,11,1.40
2018,02,22,19,12,1.40
2018,02,22,19,13,1.40
2018,02,22,19,14,1.40
2018,02,22,19,15,1.40
2018,02,22,19,16,1.40
2018,02,22,19,17,1.40
2018,02,22,19,18,1.40
2018,02,22,19,19,1.40
2018,02,22,19,20,1.40
2018,02,22,19,21,1.40
2018,02,22,19,22,1.40
2018,02,22,19,23,1.40
2018,02,22,19,24,1.40
2018,02,22,19,25,1.30
2018,02,22,19,26,1.30
2018,02,22,19,27,1.30
2018,02,22,19,28,1.30
2018,02,22,19,29,1.20
2018,02,22,19,30,1.20
2018,02,22,19,31,1.20
2018,02,22,19,32,1.20
2018,02,22,19,33,1.20
2018,02,22,19,34,1.20
2018,02,22,19,35,1.20
2018,02,22,19,36,1.20
2018,02,22,19,37,1.20
2018,02,22,19,38,1.20
2018,02,22,19,39,1.20
2018,02,22,19,40,1.20
